Park Rapids, MN

1:39 PM CST on January 18, 2017 (GMT -0600)
Park Rapids Municipal

Weather History for KPKD - October, 2012

Change the Weather History Date:

Tuesday, October 30, 2012

  Actual Average Record
Temperature  
Mean Temperature 36 °F -  
Max Temperature 43 °F 48 °F 77 °F (1950)
Min Temperature 28 °F 27 °F 8 °F (1984)
Degree Days  
Heating Degree Days 30    
Moisture  
Dew Point 27 °F    
Average Humidity 72    
Maximum Humidity 88    
Minimum Humidity 56    
Precipitation  
Precipitation 0.00 in - - ()
Sea Level Pressure  
Sea Level Pressure 30.22 in    
Wind  
Wind Speed 5 mph (ESE)    
Max Wind Speed 12 mph    
Max Gust Speed -    
Visibility 10 miles    
Events      
Averages and records for this station are not official NWS values.
T = Trace of Precipitation, MM = Missing Value Source: NWS Daily Summary

Daily Weather History Graph

Daily Weather History Graph

Search for Another Location

Airport or City:

Trip Planner

Search our weather history database for the weather conditions in past years. The results will help you decide how hot, cold, wet, or windy it might be!

Date:

Astronomy

Oct. 30, 2012 Rise Set
Actual Time 8:00 AM CDT 6:06 PM CDT
Civil Twilight 7:28 AM CDT 6:38 PM CDT
Nautical Twilight 6:53 AM CDT 7:13 PM CDT
Astronomical Twilight 6:17 AM CDT 7:49 PM CDT
Moon 6:31 PM CDT (10/30) 8:53 AM CDT (10/30)
Length of Visible Light 11h 09m
Length of Day
10h 05m
Full, 99% of the Moon is Illuminated
Oct 30
Full
Nov 6
Last Quarter
Nov 13
New
Nov 20
First Quarter
Nov 28
Full

Hourly Weather History & Observations

Time (CDT) Temp. Windchill Dew Point Humidity Pressure Visibility Wind Dir Wind Speed Gust Speed Precip Events Conditions
12:53 AM 32.0 °F 26.4 °F 21.9 °F 66% 30.27 in 10.0 mi ESE 5.8 mph - N/A   Clear
1:53 AM 32.0 °F 27.5 °F 21.2 °F 64% 30.22 in 10.0 mi ESE 4.6 mph - N/A   Clear
2:53 AM 30.9 °F 25.2 °F 23.0 °F 72% 30.27 in 10.0 mi ESE 5.8 mph - N/A   Clear
3:53 AM 32.0 °F 26.4 °F 25.0 °F 75% 30.26 in 10.0 mi ESE 5.8 mph - N/A   Clear
4:53 AM 33.1 °F 26.9 °F 26.1 °F 75% 30.25 in 10.0 mi ESE 6.9 mph - N/A   Clear
5:53 AM 32.0 °F 25.6 °F 26.1 °F 79% 30.26 in 10.0 mi ESE 6.9 mph - N/A   Clear
6:53 AM 30.0 °F 26.5 °F 25.0 °F 82% 30.27 in 10.0 mi ESE 3.5 mph - N/A   Clear
7:53 AM 30.0 °F 25.2 °F 25.0 °F 82% 30.27 in 10.0 mi East 4.6 mph - N/A   Clear
8:53 AM 33.1 °F 27.7 °F 26.1 °F 75% 30.26 in 10.0 mi East 5.8 mph - N/A   Clear
9:53 AM 35.1 °F 29.3 °F 27.0 °F 72% 30.26 in 10.0 mi ESE 6.9 mph - N/A   Scattered Clouds
10:53 AM 37.0 °F 29.3 °F 28.9 °F 73% 30.26 in 10.0 mi SE 11.5 mph - N/A   Mostly Cloudy
11:53 AM 37.9 °F 32.7 °F 30.0 °F 73% 30.25 in 10.0 mi ESE 6.9 mph - N/A   Overcast
12:53 PM 39.9 °F 33.9 °F 28.0 °F 63% 30.23 in 10.0 mi SE 9.2 mph - N/A   Overcast
1:53 PM 42.1 °F 36.6 °F 28.9 °F 60% 30.21 in 10.0 mi ESE 9.2 mph - N/A   Overcast
2:53 PM 43.0 °F 38.8 °F 28.0 °F 56% 30.20 in 10.0 mi ESE 6.9 mph - N/A   Mostly Cloudy
3:53 PM 42.1 °F 39.2 °F 28.9 °F 60% 30.19 in 10.0 mi SE 4.6 mph - N/A   Overcast
4:53 PM 42.1 °F 40.2 °F 28.0 °F 58% 30.19 in 10.0 mi ENE 3.5 mph - N/A   Overcast
5:53 PM 41.0 °F 39.0 °F 28.9 °F 62% 30.17 in 10.0 mi ENE 3.5 mph - N/A   Overcast
6:53 PM 39.0 °F 36.8 °F 28.9 °F 67% 30.17 in 10.0 mi ENE 3.5 mph - N/A   Mostly Cloudy
7:53 PM 35.1 °F 32.2 °F 28.0 °F 76% 30.17 in 10.0 mi NE 3.5 mph - N/A   Clear
8:53 PM 32.0 °F - 26.1 °F 79% 30.16 in 10.0 mi Calm Calm - N/A   Clear
9:53 PM 30.0 °F - 26.1 °F 85% 30.14 in 10.0 mi Calm Calm - N/A   Clear
10:53 PM 28.0 °F - 25.0 °F 88% 30.15 in 9.0 mi Calm Calm - N/A   Clear
11:53 PM 30.0 °F 25.2 °F 27.0 °F 88% 30.14 in 6.0 mi NE 4.6 mph - N/A   Clear